Weather History for KI16 - December, 2012

Change the Weather History Date:

Thursday, December 6, 2012

  Actual Average (KBKW) Record (KBKW)
Temperature  
Mean Temperature 42 °F 37 °F  
Max Temperature 57 °F 45 °F 72 °F (1916)
Min Temperature 28 °F 29 °F 6 °F (1984)
Degree Days  
Heating Degree Days 22 28  
Month to date heating degree days 165  
Since 1 July heating degree days 1305  
Cooling Degree Days 0 0  
Month to date cooling degree days 0  
Year to date cooling degree days 557  
Moisture  
Dew Point 39 °F    
Average Humidity 88    
Maximum Humidity 100    
Minimum Humidity 49    
Precipitation  
Precipitation 0.00 in 0.10 in 1.40 in (2013)
Month to date precipitation 0.59  
Year to date precipitation 38.78  
Snow  
Snow 0.00 in - - ()
Month to date snowfall  
Since 1 September snowfall  
Snow Depth -    
Sea Level Pressure  
Sea Level Pressure 30.21 in    
Wind  
Wind Speed - (North)    
Max Wind Speed -    
Max Gust Speed -    
Visibility 9 miles    
Events Fog , Rain    
T = Trace of Precipitation, MM = Missing Value Source: NWS Daily Summary

Daily Weather History Graph

Daily Weather History Graph

Search for Another Location

Airport or City:

Trip Planner

Search our weather history database for the weather conditions in past years. The results will help you decide how hot, cold, wet, or windy it might be!

Date:

Astronomy

Dec. 06, 2012 Rise Set
Actual Time 7:27 AM EST 5:07 PM EST
Civil Twilight 6:58 AM EST 5:36 PM EST
Nautical Twilight 6:25 AM EST 6:09 PM EST
Astronomical Twilight 5:53 AM EST 6:41 PM EST
Moon No Moon Rise 12:25 PM EST (12/6)
Length of Visible Light 10h 38m
Length of Day
9h 40m
Waning Gibbous, 49% of the Moon is Illuminated
Dec 6
Waning Gibbous
Dec 13
New
Dec 20
First Quarter
Dec 28
Full
Jan 4
Last Quarter

Hourly Weather History & Observations

Time (EST) Temp. Dew Point Humidity Pressure Visibility Wind Dir Wind Speed Gust Speed Precip Events Conditions
12:15 AM 32.0 °F 32.0 °F 100% 30.29 in 10.0 mi North - - N/A   Clear
12:35 AM 32.0 °F 32.0 °F 100% 30.29 in 10.0 mi North - - N/A   Clear
12:55 AM 32.0 °F 32.0 °F 100% 30.28 in 10.0 mi North - - N/A   Clear
1:15 AM 31.8 °F 31.8 °F 100% 30.28 in 10.0 mi North - - N/A   Clear
1:35 AM 31.3 °F 31.3 °F 100% 30.28 in 10.0 mi North - - N/A   Clear
1:55 AM 31.3 °F 31.3 °F 100% 30.28 in 10.0 mi North - - N/A   Clear
2:15 AM 31.1 °F 31.1 °F 100% 30.29 in 10.0 mi North - - N/A   Clear
2:35 AM 30.9 °F 30.9 °F 100% 30.28 in 10.0 mi North - - N/A   Clear
2:55 AM 30.9 °F 30.9 °F 100% 30.27 in 10.0 mi North - - N/A   Clear
3:15 AM 31.3 °F 31.3 °F 100% 30.27 in 7.0 mi North - - N/A   Scattered Clouds
3:35 AM 30.7 °F 30.7 °F 100% 30.26 in 7.0 mi North - - N/A   Mostly Cloudy
3:55 AM 31.1 °F 31.1 °F 100% 30.26 in 3.0 mi North - - N/A   Mostly Cloudy
4:15 AM 31.1 °F 31.1 °F 100% 30.25 in 0.5 mi North - - N/A Fog Light Freezing Fog
4:55 AM 30.2 °F 30.2 °F 100% 30.25 in 7.0 mi North - - N/A   Overcast
5:15 AM 30.2 °F 30.2 °F 100% 30.24 in 10.0 mi North - - N/A   Overcast
5:35 AM 29.7 °F 29.7 °F 100% 30.24 in 10.0 mi North - - N/A   Mostly Cloudy
5:55 AM 29.7 °F 29.7 °F 100% 30.24 in 10.0 mi North - - N/A   Scattered Clouds
6:15 AM 28.9 °F 28.9 °F 100% 30.24 in 10.0 mi North - - N/A   Scattered Clouds
6:35 AM 28.8 °F 28.8 °F 100% 30.24 in 10.0 mi North - - N/A   Mostly Cloudy
6:55 AM 28.9 °F 28.8 °F 99% 30.24 in 10.0 mi North - - N/A   Mostly Cloudy
7:15 AM 28.9 °F 28.8 °F 99% 30.24 in 10.0 mi North - - N/A   Scattered Clouds
7:35 AM 28.6 °F 28.6 °F 100% 30.24 in 10.0 mi North - - N/A   Clear
7:55 AM 28.8 °F 28.6 °F 99% 30.25 in 10.0 mi North - - N/A   Clear
8:35 AM 31.6 °F 31.6 °F 100% 30.24 in 10.0 mi North - - N/A   Clear
8:55 AM 32.5 °F 32.5 °F 100% 30.24 in 10.0 mi North - - N/A   Clear
9:15 AM 34.7 °F 34.7 °F 100% 30.23 in 7.0 mi North - - N/A   Clear
9:35 AM 37.2 °F 37.2 °F 100% 30.23 in 10.0 mi North - - N/A   Clear
9:55 AM 39.4 °F 39.0 °F 99% 30.23 in 10.0 mi North - - N/A   Clear
10:15 AM 41.9 °F 40.6 °F 95% 30.23 in 10.0 mi North - - N/A   Clear
10:35 AM 45.0 °F 42.1 °F 90% 30.23 in 10.0 mi North - - N/A   Scattered Clouds
10:55 AM 48.2 °F 42.3 °F 80% 30.23 in 10.0 mi North - - N/A   Scattered Clouds
11:15 AM 51.6 °F 41.4 °F 68% 30.22 in 10.0 mi North - - N/A   Scattered Clouds
11:55 AM 55.8 °F 38.3 °F 52% 30.20 in 10.0 mi North - - N/A   Mostly Cloudy
12:15 PM 57.0 °F 38.1 °F 49% 30.19 in 10.0 mi North - - N/A   Scattered Clouds
12:35 PM 56.7 °F 38.1 °F 50% 30.18 in 10.0 mi North - - N/A   Mostly Cloudy
12:55 PM 56.8 °F 38.5 °F 50% 30.18 in 10.0 mi North - - N/A   Overcast
1:15 PM 57.0 °F 38.7 °F 50% 30.16 in 10.0 mi North - - N/A   Overcast
1:35 PM 57.2 °F 39.2 °F 51% 30.16 in 10.0 mi North - - N/A   Overcast
1:55 PM 57.2 °F 40.3 °F 53% 30.16 in 10.0 mi North - - N/A   Overcast
2:15 PM 57.2 °F 39.4 °F 51% 30.16 in 10.0 mi North - - N/A   Overcast
2:35 PM 57.0 °F 39.0 °F 51% 30.16 in 10.0 mi North - - N/A   Overcast
2:55 PM 56.7 °F 39.7 °F 53% 30.16 in 10.0 mi North - - N/A   Overcast
3:15 PM 55.8 °F 42.6 °F 61% 30.16 in 10.0 mi North - - N/A   Overcast
3:35 PM 55.4 °F 42.1 °F 61% 30.16 in 10.0 mi North - - N/A   Light Drizzle
3:55 PM 54.3 °F 43.7 °F 67% 30.17 in 10.0 mi North - - N/A Rain Light Rain
4:15 PM 52.5 °F 45.0 °F 75% 30.18 in 10.0 mi North - - N/A   Overcast
4:35 PM 52.2 °F 46.6 °F 81% 30.18 in 7.0 mi North - - N/A Rain Light Rain
4:55 PM 51.4 °F 48.0 °F 88% 30.17 in 10.0 mi North - - N/A Rain Light Rain
5:15 PM 50.0 °F 48.4 °F 94% 30.18 in 10.0 mi North - - N/A   Overcast
5:55 PM 49.5 °F 48.7 °F 97% 30.17 in 10.0 mi North - - N/A   Overcast
6:15 PM 49.1 °F 48.4 °F 97% 30.17 in 10.0 mi North - - N/A   Overcast
7:35 PM 49.3 °F 48.6 °F 97% 30.17 in 10.0 mi North - - N/A   Overcast
7:55 PM 49.6 °F 48.2 °F 95% 30.17 in 10.0 mi North - - N/A   Overcast
8:15 PM 49.8 °F 48.6 °F 95% 30.17 in 10.0 mi North - - N/A   Overcast
8:35 PM 49.5 °F 48.6 °F 97% 30.17 in 7.0 mi North - - N/A Rain Light Rain
8:55 PM 48.6 °F 48.4 °F 99% 30.16 in 5.0 mi North - - N/A Rain Light Rain
9:35 PM 48.6 °F 48.6 °F 100% 30.16 in 7.0 mi North - - N/A   Overcast
9:55 PM 48.2 °F 48.2 °F 100% 30.16 in 5.0 mi North - - N/A Rain Rain
10:15 PM 48.2 °F 48.2 °F 100% 30.15 in 7.0 mi North - - N/A   Overcast
10:35 PM 48.2 °F 48.2 °F 100% 30.14 in 7.0 mi North - - N/A   Overcast
10:55 PM 48.0 °F 48.0 °F 100% 30.15 in 5.0 mi North - - N/A   Overcast
11:15 PM 48.2 °F 48.2 °F 100% 30.14 in 7.0 mi North - - N/A   Overcast
11:35 PM 48.0 °F 48.0 °F 100% 30.14 in 5.0 mi North - - N/A   Overcast
11:55 PM 48.2 °F 48.2 °F 100% 30.13 in 7.0 mi North - - N/A   Overcast